Time,TemperatureF,DewpointF,PressureIn,WindDirection,WindDirectionDegrees,WindSpeedMPH,WindSpeedGustMPH,Humidity,HourlyPrecipIn,Conditions,Clouds,dailyrainin,SoftwareType,DateUTC
2013-09-20 00:02:00,37.2,34.9,29.99,SW,221,0.0,0.0,91,0.00,,,0.00,meteohub,2013-09-20 07:02:00,
2013-09-20 00:07:00,37.2,35.1,29.99,SW,221,0.0,0.0,92,0.00,,,0.00,meteohub,2013-09-20 07:07:00,
2013-09-20 00:12:00,37.0,34.9,29.99,SW,221,0.0,0.0,92,0.00,,,0.00,meteohub,2013-09-20 07:12:00,
2013-09-20 00:17:00,37.0,34.9,29.99,SW,221,0.0,0.0,92,0.00,,,0.00,meteohub,2013-09-20 07:17:00,
2013-09-20 00:22:00,37.0,35.2,29.99,SW,221,0.0,0.0,93,0.00,,,0.00,meteohub,2013-09-20 07:22:00,
2013-09-20 00:27:00,36.9,34.5,30.00,SW,221,0.0,0.0,91,0.00,,,0.00,meteohub,2013-09-20 07:27:00,
2013-09-20 00:32:00,36.3,34.0,30.00,SW,221,0.0,0.0,91,0.00,,,0.00,meteohub,2013-09-20 07:32:00,
2013-09-20 00:37:00,36.1,33.8,30.00,SW,221,0.0,0.0,91,0.00,,,0.00,meteohub,2013-09-20 07:37:00,
2013-09-20 00:42:00,36.0,33.8,30.00,SW,221,0.0,0.0,92,0.00,,,0.00,meteohub,2013-09-20 07:42:00,
2013-09-20 00:47:00,36.0,34.2,30.00,SW,221,0.0,0.0,93,0.00,,,0.00,meteohub,2013-09-20 07:47:00,
2013-09-20 00:52:00,35.8,33.6,30.00,SW,221,0.0,0.0,92,0.00,,,0.00,meteohub,2013-09-20 07:52:00,
2013-09-20 00:57:00,35.8,34.0,30.00,SW,221,0.0,0.0,93,0.00,,,0.00,meteohub,2013-09-20 07:57:00,
2013-09-20 01:02:00,35.8,34.0,30.00,SW,221,0.0,0.0,93,0.00,,,0.00,meteohub,2013-09-20 08:02:00,
2013-09-20 01:07:00,35.8,34.0,30.00,SW,221,0.0,1.0,93,0.00,,,0.00,meteohub,2013-09-20 08:07:00,
2013-09-20 01:12:00,35.4,33.6,30.00,SW,221,0.0,1.0,93,0.00,,,0.00,meteohub,2013-09-20 08:12:00,
2013-09-20 01:17:00,35.6,34.0,30.01,SW,221,0.0,1.0,94,0.00,,,0.00,meteohub,2013-09-20 08:17:00,
2013-09-20 01:22:00,36.0,34.7,30.01,SW,221,0.0,0.0,95,0.00,,,0.00,meteohub,2013-09-20 08:22:00,
2013-09-20 01:32:00,35.2,33.1,30.01,SW,221,0.0,0.0,92,0.00,,,0.00,meteohub,2013-09-20 08:32:00,
2013-09-20 01:37:00,34.9,32.7,30.01,SW,221,1.0,0.0,92,0.00,,,0.00,meteohub,2013-09-20 08:37:00,
2013-09-20 01:42:00,34.5,32.4,30.01,SW,221,0.0,2.0,92,0.00,,,0.00,meteohub,2013-09-20 08:42:00,
2013-09-20 01:47:00,34.2,32.4,30.01,SW,221,0.0,2.0,93,0.00,,,0.00,meteohub,2013-09-20 08:47:00,
2013-09-20 01:52:00,34.2,32.4,30.01,SW,221,0.0,2.0,93,0.00,,,0.00,meteohub,2013-09-20 08:52:00,
2013-09-20 01:57:00,34.2,32.5,30.01,SW,221,0.0,1.0,94,0.00,,,0.00,meteohub,2013-09-20 08:57:00,
2013-09-20 02:02:00,34.2,32.5,30.01,SW,221,0.0,1.0,94,0.00,,,0.00,meteohub,2013-09-20 09:02:00,
2013-09-20 02:07:00,34.2,32.5,30.01,SW,221,0.0,1.0,94,0.00,,,0.00,meteohub,2013-09-20 09:07:00,
2013-09-20 02:12:00,34.2,32.5,30.01,SW,221,0.0,1.0,94,0.00,,,0.00,meteohub,2013-09-20 09:12:00,
2013-09-20 02:17:00,33.8,32.0,30.01,SW,221,0.0,1.0,93,0.00,,,0.00,meteohub,2013-09-20 09:17:00,
2013-09-20 02:22:00,33.4,31.8,30.01,SW,221,0.0,0.0,94,0.00,,,0.00,meteohub,2013-09-20 09:22:00,
2013-09-20 02:27:00,33.3,31.6,30.02,SW,221,0.0,0.0,94,0.00,,,0.00,meteohub,2013-09-20 09:27:00,
2013-09-20 02:32:00,33.3,31.6,30.02,SW,221,0.0,0.0,94,0.00,,,0.00,meteohub,2013-09-20 09:32:00,
2013-09-20 02:37:00,33.1,31.5,30.02,SW,221,0.0,0.0,94,0.00,,,0.00,meteohub,2013-09-20 09:37:00,
2013-09-20 02:42:00,33.3,32.0,30.02,SW,221,0.0,0.0,95,0.00,,,0.00,meteohub,2013-09-20 09:42:00,
2013-09-20 02:47:00,33.3,32.0,30.03,SW,221,0.0,0.0,95,0.00,,,0.00,meteohub,2013-09-20 09:47:00,
2013-09-20 02:52:00,33.1,31.5,30.03,SW,221,0.0,0.0,94,0.00,,,0.00,meteohub,2013-09-20 09:52:00,
2013-09-20 02:57:00,32.9,31.3,30.03,SW,221,0.0,0.0,94,0.00,,,0.00,meteohub,2013-09-20 09:57:00,
2013-09-20 03:02:00,32.5,30.9,30.03,SW,221,0.0,0.0,94,0.00,,,0.00,meteohub,2013-09-20 10:02:00,
2013-09-20 03:07:00,32.2,30.6,30.03,SW,221,0.0,2.0,94,0.00,,,0.00,meteohub,2013-09-20 10:07:00,
2013-09-20 03:12:00,32.0,30.6,30.03,SW,221,0.0,2.0,94,0.00,,,0.00,meteohub,2013-09-20 10:12:00,
2013-09-20 03:17:00,31.8,30.6,30.03,SW,221,0.0,1.0,95,0.00,,,0.00,meteohub,2013-09-20 10:17:00,
2013-09-20 03:22:00,31.8,30.6,30.04,SW,221,0.0,1.0,95,0.00,,,0.00,meteohub,2013-09-20 10:22:00,
2013-09-20 03:27:00,32.2,31.1,30.03,SW,221,0.0,0.0,96,0.00,,,0.00,meteohub,2013-09-20 10:27:00,
2013-09-20 03:32:00,32.2,31.1,30.04,SW,221,0.0,0.0,96,0.00,,,0.00,meteohub,2013-09-20 10:32:00,
2013-09-20 03:37:00,31.8,30.6,30.04,SW,221,0.0,0.0,95,0.00,,,0.00,meteohub,2013-09-20 10:37:00,
2013-09-20 03:42:00,31.6,30.2,30.04,SW,221,0.0,0.0,94,0.00,,,0.00,meteohub,2013-09-20 10:42:00,
2013-09-20 03:47:00,31.3,30.0,30.04,SW,221,0.0,0.0,95,0.00,,,0.00,meteohub,2013-09-20 10:47:00,
2013-09-20 03:52:00,31.5,30.4,30.04,SW,221,0.0,0.0,96,0.00,,,0.00,meteohub,2013-09-20 10:52:00,
2013-09-20 03:57:00,31.3,30.0,30.04,SW,221,0.0,0.0,95,0.00,,,0.00,meteohub,2013-09-20 10:57:00,
2013-09-20 04:02:00,30.9,29.7,30.04,SW,221,0.0,1.0,95,0.00,,,0.00,meteohub,2013-09-20 11:02:00,
2013-09-20 04:07:00,30.7,29.5,30.05,SW,221,0.0,1.0,95,0.00,,,0.00,meteohub,2013-09-20 11:07:00,
2013-09-20 04:12:00,30.7,29.5,30.05,SW,221,0.0,1.0,95,0.00,,,0.00,meteohub,2013-09-20 11:12:00,
2013-09-20 04:17:00,30.9,29.8,30.05,SW,221,0.0,0.0,96,0.00,,,0.00,meteohub,2013-09-20 11:17:00,
2013-09-20 04:22:00,31.1,30.0,30.06,SW,221,0.0,0.0,96,0.00,,,0.00,meteohub,2013-09-20 11:22:00,
2013-09-20 04:27:00,30.2,28.8,30.06,SW,221,0.0,1.0,94,0.00,,,0.00,meteohub,2013-09-20 11:27:00,
2013-09-20 04:32:00,29.8,28.6,30.06,SW,221,0.0,1.0,95,0.00,,,0.00,meteohub,2013-09-20 11:32:00,
2013-09-20 04:37:00,30.0,28.9,30.06,SW,221,0.0,1.0,96,0.00,,,0.00,meteohub,2013-09-20 11:37:00,
2013-09-20 04:42:00,30.4,29.3,30.06,SW,221,0.0,0.0,96,0.00,,,0.00,meteohub,2013-09-20 11:42:00,
2013-09-20 04:47:00,30.6,29.5,30.06,SW,221,0.0,0.0,96,0.00,,,0.00,meteohub,2013-09-20 11:47:00,
2013-09-20 04:52:00,30.6,29.5,30.06,SW,221,0.0,0.0,96,0.00,,,0.00,meteohub,2013-09-20 11:52:00,
2013-09-20 04:57:00,30.6,29.5,30.07,SW,221,0.0,0.0,96,0.00,,,0.00,meteohub,2013-09-20 11:57:00,
2013-09-20 05:02:00,30.6,29.5,30.07,SW,221,0.0,0.0,96,0.00,,,0.00,meteohub,2013-09-20 12:02:00,
2013-09-20 05:12:00,30.2,29.1,30.07,SW,221,0.0,0.0,96,0.00,,,0.00,meteohub,2013-09-20 12:12:00,
2013-09-20 05:17:00,29.8,28.6,30.08,SW,221,0.0,1.0,95,0.00,,,0.00,meteohub,2013-09-20 12:17:00,
2013-09-20 05:22:00,29.8,28.8,30.08,SW,221,0.0,1.0,96,0.00,,,0.00,meteohub,2013-09-20 12:22:00,
2013-09-20 05:27:00,29.1,27.9,30.08,SW,221,0.0,2.0,95,0.00,,,0.00,meteohub,2013-09-20 12:27:00,
2013-09-20 05:32:00,28.9,27.7,30.08,SW,221,2.0,2.0,95,0.00,,,0.00,meteohub,2013-09-20 12:32:00,
2013-09-20 05:37:00,28.9,27.9,30.08,SW,221,0.0,2.0,96,0.00,,,0.00,meteohub,2013-09-20 12:37:00,
2013-09-20 05:42:00,28.9,27.9,30.08,SW,221,2.0,2.0,96,0.00,,,0.00,meteohub,2013-09-20 12:42:00,
2013-09-20 05:47:00,28.8,27.5,30.08,SW,221,0.0,2.0,95,0.00,,,0.00,meteohub,2013-09-20 12:47:00,
2013-09-20 05:52:00,28.8,27.7,30.08,SW,221,0.0,2.0,96,0.00,,,0.00,meteohub,2013-09-20 12:52:00,
2013-09-20 05:57:00,28.8,27.7,30.09,SW,221,0.0,2.0,96,0.00,,,0.00,meteohub,2013-09-20 12:57:00,
2013-09-20 06:02:00,28.8,27.7,30.09,SW,221,0.0,0.0,96,0.00,,,0.00,meteohub,2013-09-20 13:02:00,
2013-09-20 06:07:00,28.8,27.7,30.09,SW,221,0.0,0.0,96,0.00,,,0.00,meteohub,2013-09-20 13:07:00,
2013-09-20 06:12:00,28.6,27.5,30.09,SW,221,0.0,0.0,96,0.00,,,0.00,meteohub,2013-09-20 13:12:00,
2013-09-20 06:17:00,28.4,27.1,30.09,SW,221,0.0,0.0,95,0.00,,,0.00,meteohub,2013-09-20 13:17:00,
2013-09-20 06:22:00,28.4,27.3,30.10,SW,221,0.0,0.0,96,0.00,,,0.00,meteohub,2013-09-20 13:22:00,
2013-09-20 06:27:00,28.4,27.3,30.10,SW,221,0.0,0.0,96,0.00,,,0.00,meteohub,2013-09-20 13:27:00,
2013-09-20 06:32:00,28.6,27.5,30.11,SW,221,0.0,0.0,96,0.00,,,0.00,meteohub,2013-09-20 13:32:00,
2013-09-20 06:37:00,28.4,27.3,30.11,SW,221,0.0,0.0,96,0.00,,,0.00,meteohub,2013-09-20 13:37:00,
2013-09-20 06:42:00,28.6,27.5,30.11,SW,221,0.0,0.0,96,0.00,,,0.00,meteohub,2013-09-20 13:42:00,
2013-09-20 06:47:00,28.8,28.0,30.12,SW,221,0.0,0.0,97,0.00,,,0.00,meteohub,2013-09-20 13:47:00,
2013-09-20 06:52:00,29.8,29.1,30.12,SW,221,0.0,0.0,97,0.00,,,0.00,meteohub,2013-09-20 13:52:00,
2013-09-20 06:57:00,30.9,30.2,30.11,SW,221,0.0,0.0,97,0.00,,,0.00,meteohub,2013-09-20 13:57:00,
2013-09-20 07:02:00,31.5,30.7,30.11,SW,221,0.0,0.0,97,0.00,,,0.00,meteohub,2013-09-20 14:02:00,
2013-09-20 07:07:00,31.3,30.6,30.12,SW,221,0.0,0.0,97,0.00,,,0.00,meteohub,2013-09-20 14:07:00,
2013-09-20 07:12:00,31.5,30.7,30.12,SW,221,0.0,0.0,97,0.00,,,0.00,meteohub,2013-09-20 14:12:00,
2013-09-20 07:17:00,32.2,31.5,30.12,SW,221,0.0,0.0,97,0.00,,,0.00,meteohub,2013-09-20 14:17:00,
2013-09-20 07:22:00,32.9,32.2,30.12,SW,221,0.0,0.0,97,0.00,,,0.00,meteohub,2013-09-20 14:22:00,
2013-09-20 07:27:00,33.8,33.1,30.12,SW,221,0.0,0.0,97,0.01,,,0.01,meteohub,2013-09-20 14:27:00,
2013-09-20 07:32:00,34.5,33.8,30.12,SW,221,0.0,1.0,97,0.01,,,0.01,meteohub,2013-09-20 14:32:00,
2013-09-20 07:37:00,35.2,34.7,30.12,SW,221,0.0,1.0,98,0.01,,,0.01,meteohub,2013-09-20 14:37:00,
2013-09-20 07:42:00,36.0,35.2,30.12,SW,221,0.0,2.0,97,0.01,,,0.01,meteohub,2013-09-20 14:42:00,
2013-09-20 07:47:00,36.5,35.8,30.12,SW,221,0.0,2.0,97,0.01,,,0.01,meteohub,2013-09-20 14:47:00,
2013-09-20 07:52:00,37.2,36.1,30.12,SW,221,0.0,1.0,96,0.01,,,0.01,meteohub,2013-09-20 14:52:00,
2013-09-20 07:57:00,37.8,36.1,30.11,SW,221,0.0,0.0,94,0.01,,,0.01,meteohub,2013-09-20 14:57:00,
2013-09-20 08:02:00,38.3,36.1,30.11,SW,221,0.0,0.0,92,0.01,,,0.01,meteohub,2013-09-20 15:02:00,
2013-09-20 08:07:00,39.2,37.0,30.11,SW,222,0.0,0.0,92,0.01,,,0.01,meteohub,2013-09-20 15:07:00,
2013-09-20 08:12:00,39.7,36.5,30.11,SW,222,0.0,1.0,88,0.01,,,0.01,meteohub,2013-09-20 15:12:00,
2013-09-20 08:17:00,40.3,36.7,30.11,SW,222,0.0,1.0,87,0.01,,,0.01,meteohub,2013-09-20 15:17:00,
2013-09-20 08:22:00,40.8,37.0,30.11,SW,222,1.0,1.0,86,0.00,,,0.01,meteohub,2013-09-20 15:22:00,
2013-09-20 08:27:00,41.4,36.9,30.11,SW,229,0.0,1.0,84,0.00,,,0.01,meteohub,2013-09-20 15:27:00,
2013-09-20 08:37:00,42.8,37.8,30.10,SW,229,0.0,2.0,82,0.00,,,0.01,meteohub,2013-09-20 15:37:00,
2013-09-20 08:42:00,43.9,38.1,30.10,SW,229,0.0,2.0,80,0.00,,,0.01,meteohub,2013-09-20 15:42:00,
2013-09-20 08:47:00,44.4,37.4,30.10,ENE,59,3.0,3.0,76,0.00,,,0.01,meteohub,2013-09-20 15:47:00,
2013-09-20 08:52:00,44.8,37.4,30.10,ENE,59,0.0,3.0,75,0.00,,,0.01,meteohub,2013-09-20 15:52:00,
2013-09-20 08:57:00,45.5,38.3,30.10,ENE,59,1.0,3.0,76,0.00,,,0.01,meteohub,2013-09-20 15:57:00,
2013-09-20 09:02:00,45.9,37.4,30.10,ENE,59,0.0,3.0,72,0.00,,,0.01,meteohub,2013-09-20 16:02:00,
2013-09-20 09:07:00,46.8,39.2,30.10,ENE,59,1.0,2.0,75,0.00,,,0.01,meteohub,2013-09-20 16:07:00,
2013-09-20 09:12:00,47.3,38.3,30.10,ENE,59,0.0,2.0,71,0.00,,,0.01,meteohub,2013-09-20 16:12:00,
2013-09-20 09:17:00,47.7,38.3,30.09,ENE,59,1.0,2.0,70,0.00,,,0.01,meteohub,2013-09-20 16:17:00,
2013-09-20 09:22:00,48.0,38.3,30.10,ENE,59,2.0,2.0,69,0.00,,,0.01,meteohub,2013-09-20 16:22:00,
2013-09-20 09:27:00,48.6,38.5,30.09,ENE,59,0.0,3.0,68,0.00,,,0.01,meteohub,2013-09-20 16:27:00,
2013-09-20 09:32:00,49.1,38.7,30.09,ENE,59,1.0,3.0,67,0.00,,,0.01,meteohub,2013-09-20 16:32:00,
2013-09-20 09:37:00,49.5,38.7,30.09,ENE,59,0.0,4.0,66,0.00,,,0.01,meteohub,2013-09-20 16:37:00,
2013-09-20 09:42:00,49.8,39.7,30.09,ENE,59,0.0,4.0,68,0.00,,,0.01,meteohub,2013-09-20 16:42:00,
2013-09-20 09:52:00,51.1,40.1,30.09,NE,55,0.0,4.0,66,0.00,,,0.01,meteohub,2013-09-20 16:52:00,
2013-09-20 09:57:00,51.3,39.9,30.08,NE,51,0.0,4.0,65,0.00,,,0.01,meteohub,2013-09-20 16:57:00,
2013-09-20 10:02:00,51.4,39.7,30.08,NNE,33,0.0,4.0,64,0.00,,,0.01,meteohub,2013-09-20 17:02:00,
2013-09-20 10:07:00,52.2,39.6,30.08,NE,46,2.0,4.0,62,0.00,,,0.01,meteohub,2013-09-20 17:07:00,
2013-09-20 10:12:00,52.5,40.6,30.08,ENE,60,2.0,5.0,64,0.00,,,0.01,meteohub,2013-09-20 17:12:00,
2013-09-20 10:17:00,53.1,40.5,30.07,NNE,24,0.0,5.0,62,0.00,,,0.01,meteohub,2013-09-20 17:17:00,
2013-09-20 10:22:00,53.8,39.7,30.07,North,5,2.0,5.0,59,0.00,,,0.01,meteohub,2013-09-20 17:22:00,
2013-09-20 10:27:00,54.1,39.2,30.07,NE,51,4.0,5.0,57,0.00,,,0.01,meteohub,2013-09-20 17:27:00,
2013-09-20 10:32:00,54.5,40.5,30.06,NE,36,3.0,5.0,59,0.00,,,0.01,meteohub,2013-09-20 17:32:00,
2013-09-20 10:37:00,55.0,39.2,30.06,NE,53,1.0,5.0,55,0.00,,,0.01,meteohub,2013-09-20 17:37:00,
2013-09-20 10:42:00,55.8,38.5,30.06,NE,46,0.0,6.0,52,0.00,,,0.01,meteohub,2013-09-20 17:42:00,
2013-09-20 10:47:00,55.9,39.0,30.06,North,11,2.0,6.0,53,0.00,,,0.01,meteohub,2013-09-20 17:47:00,
2013-09-20 10:52:00,56.7,39.2,30.06,North,9,5.0,6.0,52,0.00,,,0.01,meteohub,2013-09-20 17:52:00,
2013-09-20 10:57:00,57.0,38.5,30.06,NNE,26,3.0,6.0,50,0.00,,,0.01,meteohub,2013-09-20 17:57:00,
2013-09-20 11:02:00,57.4,38.3,30.05,ENE,58,2.0,6.0,49,0.00,,,0.01,meteohub,2013-09-20 18:02:00,
2013-09-20 11:07:00,57.9,39.9,30.05,NNW,346,5.0,8.0,51,0.00,,,0.01,meteohub,2013-09-20 18:07:00,
2013-09-20 11:12:00,58.5,39.9,30.05,ENE,59,3.0,8.0,50,0.00,,,0.01,meteohub,2013-09-20 18:12:00,
2013-09-20 11:17:00,58.8,39.2,30.05,NNW,331,2.0,8.0,48,0.00,,,0.01,meteohub,2013-09-20 18:17:00,
2013-09-20 11:22:00,59.5,38.1,30.04,NE,52,1.0,7.0,45,0.00,,,0.01,meteohub,2013-09-20 18:22:00,
2013-09-20 11:27:00,60.1,40.3,30.04,East,83,1.0,5.0,48,0.00,,,0.01,meteohub,2013-09-20 18:27:00,
2013-09-20 11:32:00,60.4,37.2,30.04,NE,46,3.0,6.0,42,0.00,,,0.01,meteohub,2013-09-20 18:32:00,
2013-09-20 11:37:00,60.6,36.9,30.04,North,5,1.0,6.0,41,0.00,,,0.01,meteohub,2013-09-20 18:37:00,
2013-09-20 11:42:00,61.2,32.5,30.04,NE,38,3.0,13.0,34,0.00,,,0.01,meteohub,2013-09-20 18:42:00,
2013-09-20 11:47:00,61.5,34.3,30.04,ENE,71,3.0,13.0,36,0.00,,,0.01,meteohub,2013-09-20 18:47:00,
2013-09-20 11:52:00,62.1,34.9,30.04,NE,46,5.0,13.0,36,0.00,,,0.01,meteohub,2013-09-20 18:52:00,
2013-09-20 11:57:00,62.6,34.5,30.04,NE,50,3.0,10.0,35,0.00,,,0.01,meteohub,2013-09-20 18:57:00,
2013-09-20 12:02:00,62.6,32.4,30.03,NE,47,4.0,9.0,32,0.00,,,0.01,meteohub,2013-09-20 19:02:00,
2013-09-20 12:07:00,62.4,35.1,30.03,NE,49,5.0,9.0,36,0.00,,,0.01,meteohub,2013-09-20 19:07:00,
2013-09-20 12:12:00,62.6,34.5,30.03,NNE,15,5.0,10.0,35,0.00,,,0.01,meteohub,2013-09-20 19:12:00,
2013-09-20 12:17:00,63.0,34.2,30.02,NE,40,6.0,10.0,34,0.00,,,0.01,meteohub,2013-09-20 19:17:00,
2013-09-20 12:22:00,63.1,34.3,30.02,NE,40,4.0,9.0,34,0.00,,,0.01,meteohub,2013-09-20 19:22:00,
2013-09-20 12:27:00,63.3,36.0,30.02,NE,51,2.0,10.0,36,0.00,,,0.01,meteohub,2013-09-20 19:27:00,
2013-09-20 12:32:00,63.9,34.2,30.01,NE,46,6.0,10.0,33,0.00,,,0.01,meteohub,2013-09-20 19:32:00,
2013-09-20 12:37:00,63.5,35.4,30.02,NE,40,6.0,10.0,35,0.00,,,0.01,meteohub,2013-09-20 19:37:00,
2013-09-20 12:42:00,63.7,34.0,30.01,NE,44,4.0,10.0,33,0.00,,,0.01,meteohub,2013-09-20 19:42:00,
2013-09-20 12:47:00,63.9,32.7,30.01,East,92,2.0,10.0,31,0.00,,,0.01,meteohub,2013-09-20 19:47:00,
2013-09-20 12:52:00,64.2,36.0,30.01,NNE,31,2.0,10.0,35,0.00,,,0.01,meteohub,2013-09-20 19:52:00,
2013-09-20 12:57:00,64.8,36.5,30.00,NE,49,6.0,8.0,35,0.00,,,0.01,meteohub,2013-09-20 19:57:00,
2013-09-20 13:02:00,64.9,36.0,30.00,ENE,67,0.0,8.0,34,0.00,,,0.01,meteohub,2013-09-20 20:02:00,
2013-09-20 13:07:00,65.3,35.4,30.00,NNW,342,3.0,7.0,33,0.00,,,0.01,meteohub,2013-09-20 20:07:00,
2013-09-20 13:12:00,65.5,36.3,30.00,ENE,71,1.0,8.0,34,0.00,,,0.01,meteohub,2013-09-20 20:12:00,
2013-09-20 13:17:00,65.7,35.1,30.00,East,95,5.0,11.0,32,0.00,,,0.01,meteohub,2013-09-20 20:17:00,
2013-09-20 13:22:00,65.5,37.8,29.99,ENE,63,2.0,11.0,36,0.00,,,0.01,meteohub,2013-09-20 20:22:00,
2013-09-20 13:27:00,65.8,36.7,29.99,ESE,109,5.0,11.0,34,0.00,,,0.01,meteohub,2013-09-20 20:27:00,
2013-09-20 13:32:00,66.4,34.9,29.99,NE,55,1.0,10.0,31,0.00,,,0.01,meteohub,2013-09-20 20:32:00,
2013-09-20 13:37:00,66.4,34.9,29.98,NE,51,4.0,7.0,31,0.00,,,0.01,meteohub,2013-09-20 20:37:00,
2013-09-20 13:42:00,66.9,35.2,29.98,ENE,63,4.0,8.0,31,0.00,,,0.01,meteohub,2013-09-20 20:42:00,
2013-09-20 13:47:00,67.3,34.7,29.98,East,86,3.0,8.0,30,0.00,,,0.01,meteohub,2013-09-20 20:47:00,
2013-09-20 13:52:00,67.3,36.5,29.98,NE,56,2.0,11.0,32,0.00,,,0.01,meteohub,2013-09-20 20:52:00,
2013-09-20 13:57:00,67.5,34.9,29.97,ESE,106,0.0,11.0,30,0.00,,,0.01,meteohub,2013-09-20 20:57:00,
2013-09-20 14:02:00,68.0,37.0,29.97,East,83,3.0,9.0,32,0.00,,,0.01,meteohub,2013-09-20 21:02:00,
2013-09-20 14:07:00,68.2,32.9,29.97,East,84,1.0,9.0,27,0.00,,,0.01,meteohub,2013-09-20 21:07:00,
2013-09-20 14:12:00,68.2,33.8,29.97,ENE,64,0.0,9.0,28,0.00,,,0.01,meteohub,2013-09-20 21:12:00,
2013-09-20 14:17:00,68.4,34.9,29.96,ENE,68,10.0,10.0,29,0.00,,,0.01,meteohub,2013-09-20 21:17:00,
2013-09-20 14:22:00,68.4,33.1,29.96,NNE,13,9.0,11.0,27,0.00,,,0.01,meteohub,2013-09-20 21:22:00,
2013-09-20 14:27:00,68.4,33.1,29.96,ESE,105,1.0,14.0,27,0.00,,,0.01,meteohub,2013-09-20 21:27:00,
2013-09-20 14:32:00,68.2,33.8,29.97,NE,55,4.0,14.0,28,0.00,,,0.01,meteohub,2013-09-20 21:32:00,
2013-09-20 14:37:00,68.2,35.6,29.96,NE,53,7.0,14.0,30,0.00,,,0.01,meteohub,2013-09-20 21:37:00,
2013-09-20 14:42:00,67.8,33.4,29.96,NE,55,3.0,11.0,28,0.00,,,0.01,meteohub,2013-09-20 21:42:00,
2013-09-20 14:47:00,68.2,32.9,29.96,East,100,5.0,11.0,27,0.00,,,0.01,meteohub,2013-09-20 21:47:00,
2013-09-20 14:52:00,68.5,34.2,29.96,East,101,7.0,11.0,28,0.00,,,0.01,meteohub,2013-09-20 21:52:00,
2013-09-20 14:57:00,68.5,32.4,29.96,ENE,59,5.0,11.0,26,0.00,,,0.01,meteohub,2013-09-20 21:57:00,
2013-09-20 15:02:00,68.5,33.3,29.96,East,82,6.0,10.0,27,0.00,,,0.01,meteohub,2013-09-20 22:02:00,
2013-09-20 15:07:00,68.7,34.3,29.96,ESE,121,4.0,10.0,28,0.00,,,0.01,meteohub,2013-09-20 22:07:00,
2013-09-20 15:12:00,69.1,36.3,29.96,ENE,59,5.0,10.0,30,0.00,,,0.01,meteohub,2013-09-20 22:12:00,
2013-09-20 15:17:00,69.1,34.5,29.96,NE,49,5.0,11.0,28,0.00,,,0.01,meteohub,2013-09-20 22:17:00,
2013-09-20 15:22:00,68.7,33.4,29.96,East,82,3.0,11.0,27,0.00,,,0.01,meteohub,2013-09-20 22:22:00,
2013-09-20 15:27:00,68.5,36.7,29.96,ENE,60,2.0,11.0,31,0.00,,,0.01,meteohub,2013-09-20 22:27:00,
2013-09-20 15:32:00,68.5,35.1,29.96,ENE,59,7.0,11.0,29,0.00,,,0.01,meteohub,2013-09-20 22:32:00,
2013-09-20 15:37:00,68.2,32.0,29.96,NE,48,5.0,10.0,26,0.00,,,0.01,meteohub,2013-09-20 22:37:00,
2013-09-20 15:42:00,68.2,32.9,29.95,ESE,110,3.0,10.0,27,0.00,,,0.01,meteohub,2013-09-20 22:42:00,
2013-09-20 15:47:00,68.2,35.6,29.95,NE,55,5.0,10.0,30,0.00,,,0.01,meteohub,2013-09-20 22:47:00,
2013-09-20 15:52:00,67.8,36.1,29.95,ENE,71,4.0,11.0,31,0.00,,,0.01,meteohub,2013-09-20 22:52:00,
2013-09-20 15:57:00,67.5,34.2,29.95,NE,52,14.0,14.0,29,0.00,,,0.01,meteohub,2013-09-20 22:57:00,
2013-09-20 16:07:00,67.3,33.1,29.95,SE,139,4.0,16.0,28,0.00,,,0.01,meteohub,2013-09-20 23:07:00,
2013-09-20 16:17:00,67.5,32.4,29.95,East,85,5.0,10.0,27,0.00,,,0.01,meteohub,2013-09-20 23:17:00,
2013-09-20 16:22:00,67.6,35.1,29.96,NE,51,0.0,10.0,30,0.00,,,0.01,meteohub,2013-09-20 23:22:00,
2013-09-20 16:27:00,67.5,32.4,29.95,NE,52,9.0,10.0,27,0.00,,,0.01,meteohub,2013-09-20 23:27:00,
2013-09-20 16:32:00,67.3,33.1,29.95,NE,49,6.0,12.0,28,0.00,,,0.01,meteohub,2013-09-20 23:32:00,
2013-09-20 16:37:00,67.1,32.9,29.95,ESE,113,5.0,12.0,28,0.00,,,0.01,meteohub,2013-09-20 23:37:00,
2013-09-20 16:42:00,66.9,34.5,29.95,ENE,71,2.0,12.0,30,0.00,,,0.01,meteohub,2013-09-20 23:42:00,
2013-09-20 16:47:00,66.7,34.3,29.95,SE,132,1.0,11.0,30,0.00,,,0.01,meteohub,2013-09-20 23:47:00,
2013-09-20 16:52:00,66.7,33.4,29.95,ENE,57,5.0,10.0,29,0.00,,,0.01,meteohub,2013-09-20 23:52:00,
2013-09-20 16:57:00,66.7,34.3,29.95,NE,44,5.0,10.0,30,0.00,,,0.01,meteohub,2013-09-20 23:57:00,
2013-09-20 17:02:00,66.4,34.9,29.95,East,98,3.0,10.0,31,0.00,,,0.01,meteohub,2013-09-21 00:02:00,
2013-09-20 17:12:00,66.2,33.8,29.95,NE,52,4.0,7.0,30,0.00,,,0.00,meteohub,2013-09-21 00:12:00,
2013-09-20 17:17:00,65.5,34.0,29.95,ENE,57,3.0,8.0,31,0.00,,,0.00,meteohub,2013-09-21 00:17:00,
2013-09-20 17:22:00,65.5,33.3,29.95,NE,47,2.0,8.0,30,0.00,,,0.00,meteohub,2013-09-21 00:22:00,
2013-09-20 17:27:00,64.9,36.0,29.96,NE,49,2.0,8.0,34,0.00,,,0.00,meteohub,2013-09-21 00:27:00,
2013-09-20 17:32:00,64.2,34.5,29.95,NE,44,0.0,5.0,33,0.00,,,0.00,meteohub,2013-09-21 00:32:00,
2013-09-20 17:37:00,63.7,35.6,29.96,NE,52,2.0,5.0,35,0.00,,,0.00,meteohub,2013-09-21 00:37:00,
2013-09-20 17:42:00,63.1,35.1,29.96,NE,49,1.0,5.0,35,0.00,,,0.00,meteohub,2013-09-21 00:42:00,
2013-09-20 17:52:00,61.5,35.1,29.95,NE,49,0.0,5.0,37,0.00,,,0.00,meteohub,2013-09-21 00:52:00,
2013-09-20 17:57:00,60.8,34.3,29.96,ENE,58,0.0,5.0,37,0.00,,,0.00,meteohub,2013-09-21 00:57:00,
2013-09-20 18:02:00,60.4,36.0,29.96,ENE,58,0.0,3.0,40,0.00,,,0.00,meteohub,2013-09-21 01:02:00,
2013-09-20 18:07:00,59.7,34.7,29.96,ENE,58,0.0,3.0,39,0.00,,,0.00,meteohub,2013-09-21 01:07:00,
2013-09-20 18:12:00,59.4,36.3,29.96,ENE,58,0.0,3.0,42,0.00,,,0.00,meteohub,2013-09-21 01:12:00,
2013-09-20 18:17:00,58.6,36.1,29.96,ENE,58,0.0,0.0,43,0.00,,,0.00,meteohub,2013-09-21 01:17:00,
2013-09-20 18:22:00,58.5,34.9,29.96,ENE,58,0.0,0.0,41,0.00,,,0.00,meteohub,2013-09-21 01:22:00,
2013-09-20 18:27:00,58.1,36.9,29.96,ENE,58,2.0,2.0,45,0.00,,,0.00,meteohub,2013-09-21 01:27:00,
2013-09-20 18:32:00,56.5,36.0,29.96,West,281,2.0,4.0,46,0.00,,,0.00,meteohub,2013-09-21 01:32:00,
2013-09-20 18:37:00,55.6,37.2,29.97,West,281,1.0,4.0,50,0.00,,,0.00,meteohub,2013-09-21 01:37:00,
2013-09-20 18:42:00,54.3,37.9,29.97,West,281,2.0,4.0,54,0.00,,,0.00,meteohub,2013-09-21 01:42:00,
2013-09-20 18:47:00,52.3,37.0,29.97,West,275,3.0,3.0,56,0.00,,,0.00,meteohub,2013-09-21 01:47:00,
2013-09-20 18:52:00,50.7,37.4,29.97,West,266,1.0,5.0,60,0.00,,,0.00,meteohub,2013-09-21 01:52:00,
2013-09-20 18:57:00,49.6,37.2,29.97,West,266,0.0,5.0,62,0.00,,,0.00,meteohub,2013-09-21 01:57:00,
2013-09-20 19:02:00,48.9,37.2,29.98,West,266,1.0,5.0,64,0.00,,,0.00,meteohub,2013-09-21 02:02:00,
2013-09-20 19:07:00,48.4,37.6,29.98,West,266,1.0,4.0,66,0.00,,,0.00,meteohub,2013-09-21 02:07:00,
2013-09-20 19:12:00,48.0,37.6,29.98,West,266,1.0,4.0,67,0.00,,,0.00,meteohub,2013-09-21 02:12:00,
2013-09-20 19:22:00,47.8,37.8,29.99,West,265,0.0,5.0,68,0.00,,,0.00,meteohub,2013-09-21 02:22:00,
2013-09-20 19:27:00,47.7,37.2,29.99,West,265,0.0,5.0,67,0.00,,,0.00,meteohub,2013-09-21 02:27:00,
2013-09-20 19:32:00,47.3,37.2,30.00,West,265,0.0,5.0,68,0.00,,,0.00,meteohub,2013-09-21 02:32:00,
2013-09-20 19:37:00,46.6,37.0,30.00,West,264,0.0,5.0,69,0.00,,,0.00,meteohub,2013-09-21 02:37:00,
2013-09-20 19:42:00,46.0,36.9,30.00,West,264,0.0,5.0,70,0.00,,,0.00,meteohub,2013-09-21 02:42:00,
2013-09-20 19:47:00,45.7,36.9,30.01,West,264,0.0,3.0,71,0.00,,,0.00,meteohub,2013-09-21 02:47:00,
2013-09-20 19:57:00,45.3,36.9,30.01,WSW,257,3.0,4.0,72,0.00,,,0.00,meteohub,2013-09-21 02:57:00,
2013-09-20 20:02:00,45.1,37.0,30.01,WSW,255,0.0,6.0,73,0.00,,,0.00,meteohub,2013-09-21 03:02:00,
2013-09-20 20:12:00,45.0,36.9,30.01,WSW,254,0.0,6.0,73,0.00,,,0.00,meteohub,2013-09-21 03:12:00,
2013-09-20 20:17:00,45.0,36.9,30.01,WSW,254,0.0,5.0,73,0.00,,,0.00,meteohub,2013-09-21 03:17:00,
2013-09-20 20:22:00,45.0,37.6,30.02,WSW,254,0.0,5.0,75,0.00,,,0.00,meteohub,2013-09-21 03:22:00,
2013-09-20 20:27:00,45.1,37.0,30.02,WSW,254,0.0,5.0,73,0.00,,,0.00,meteohub,2013-09-21 03:27:00,
2013-09-20 20:32:00,45.5,37.8,30.02,WSW,254,0.0,0.0,74,0.00,,,0.00,meteohub,2013-09-21 03:32:00,
2013-09-20 20:42:00,45.1,37.0,30.02,WSW,254,0.0,0.0,73,0.00,,,0.00,meteohub,2013-09-21 03:42:00,
2013-09-20 20:47:00,45.0,37.9,30.03,WSW,254,0.0,0.0,76,0.00,,,0.00,meteohub,2013-09-21 03:47:00,
2013-09-20 20:52:00,44.8,36.3,30.03,WSW,254,0.0,1.0,72,0.00,,,0.00,meteohub,2013-09-21 03:52:00,
2013-09-20 20:57:00,44.6,36.5,30.03,WSW,254,0.0,1.0,73,0.00,,,0.00,meteohub,2013-09-21 03:57:00,
2013-09-20 21:02:00,44.4,36.7,30.03,WSW,254,0.0,1.0,74,0.00,,,0.00,meteohub,2013-09-21 04:02:00,
2013-09-20 21:07:00,44.1,36.3,30.03,WSW,254,0.0,0.0,74,0.00,,,0.00,meteohub,2013-09-21 04:07:00,
2013-09-20 21:12:00,43.9,36.9,30.03,WSW,254,0.0,0.0,76,0.00,,,0.00,meteohub,2013-09-21 04:12:00,
2013-09-20 21:17:00,43.5,37.0,30.03,WSW,254,0.0,0.0,78,0.00,,,0.00,meteohub,2013-09-21 04:17:00,
2013-09-20 21:22:00,43.2,36.5,30.03,WSW,254,0.0,0.0,77,0.00,,,0.00,meteohub,2013-09-21 04:22:00,
2013-09-20 21:27:00,43.0,36.7,30.03,WSW,254,0.0,0.0,78,0.00,,,0.00,meteohub,2013-09-21 04:27:00,
2013-09-20 21:32:00,43.0,36.7,30.04,WSW,254,0.0,0.0,78,0.00,,,0.00,meteohub,2013-09-21 04:32:00,
2013-09-20 21:37:00,42.8,36.1,30.04,WSW,254,0.0,0.0,77,0.00,,,0.00,meteohub,2013-09-21 04:37:00,
2013-09-20 21:42:00,42.4,36.1,30.04,WSW,254,0.0,0.0,78,0.00,,,0.00,meteohub,2013-09-21 04:42:00,
2013-09-20 21:47:00,42.3,36.1,30.04,WSW,254,0.0,0.0,79,0.00,,,0.00,meteohub,2013-09-21 04:47:00,
2013-09-20 21:52:00,41.9,36.1,30.04,WSW,254,0.0,0.0,80,0.00,,,0.00,meteohub,2013-09-21 04:52:00,
2013-09-20 21:57:00,41.7,36.3,30.04,WSW,254,0.0,0.0,81,0.00,,,0.00,meteohub,2013-09-21 04:57:00,
2013-09-20 22:02:00,41.5,36.1,30.04,WSW,254,0.0,0.0,81,0.00,,,0.00,meteohub,2013-09-21 05:02:00,
2013-09-20 22:07:00,41.5,36.5,30.04,WSW,254,0.0,0.0,82,0.00,,,0.00,meteohub,2013-09-21 05:07:00,
2013-09-20 22:12:00,41.4,36.0,30.04,WSW,254,0.0,0.0,81,0.00,,,0.00,meteohub,2013-09-21 05:12:00,
2013-09-20 22:17:00,41.0,36.0,30.04,WSW,254,0.0,0.0,82,0.00,,,0.00,meteohub,2013-09-21 05:17:00,
2013-09-20 22:22:00,40.6,36.1,30.05,WSW,254,0.0,0.0,84,0.00,,,0.00,meteohub,2013-09-21 05:22:00,
2013-09-20 22:27:00,40.6,36.5,30.04,WSW,254,0.0,2.0,85,0.00,,,0.00,meteohub,2013-09-21 05:27:00,
2013-09-20 22:32:00,40.8,36.3,30.05,WSW,254,0.0,2.0,84,0.00,,,0.00,meteohub,2013-09-21 05:32:00,
2013-09-20 22:37:00,40.6,36.0,30.05,WSW,254,0.0,2.0,83,0.00,,,0.00,meteohub,2013-09-21 05:37:00,
2013-09-20 22:42:00,40.8,36.3,30.04,WSW,254,0.0,0.0,84,0.00,,,0.00,meteohub,2013-09-21 05:42:00,
2013-09-20 22:47:00,41.2,35.4,30.05,WSW,254,1.0,2.0,80,0.00,,,0.00,meteohub,2013-09-21 05:47:00,
2013-09-20 22:52:00,40.8,35.8,30.05,WSW,254,0.0,2.0,82,0.00,,,0.00,meteohub,2013-09-21 05:52:00,
2013-09-20 22:57:00,40.6,35.2,30.05,WSW,254,0.0,2.0,81,0.00,,,0.00,meteohub,2013-09-21 05:57:00,
2013-09-20 23:02:00,40.6,36.0,30.05,WSW,254,0.0,2.0,83,0.00,,,0.00,meteohub,2013-09-21 06:02:00,
2013-09-20 23:07:00,40.6,35.6,30.05,WSW,254,0.0,2.0,82,0.00,,,0.00,meteohub,2013-09-21 06:07:00,
2013-09-20 23:12:00,40.6,35.6,30.05,WSW,254,0.0,2.0,82,0.00,,,0.00,meteohub,2013-09-21 06:12:00,
2013-09-20 23:17:00,40.6,36.0,30.04,WSW,254,0.0,1.0,83,0.00,,,0.00,meteohub,2013-09-21 06:17:00,
2013-09-20 23:22:00,40.3,35.6,30.05,WSW,254,0.0,0.0,83,0.00,,,0.00,meteohub,2013-09-21 06:22:00,
2013-09-20 23:27:00,39.7,35.6,30.04,WSW,254,0.0,0.0,85,0.00,,,0.00,meteohub,2013-09-21 06:27:00,
2013-09-20 23:32:00,39.6,35.8,30.04,WSW,254,0.0,0.0,86,0.00,,,0.00,meteohub,2013-09-21 06:32:00,
2013-09-20 23:37:00,39.6,35.8,30.04,WSW,254,0.0,1.0,86,0.00,,,0.00,meteohub,2013-09-21 06:37:00,
2013-09-20 23:42:00,39.4,35.8,30.04,WSW,254,0.0,1.0,87,0.00,,,0.00,meteohub,2013-09-21 06:42:00,
2013-09-20 23:47:00,39.2,36.0,30.04,WSW,245,0.0,1.0,88,0.00,,,0.00,meteohub,2013-09-21 06:47:00,
2013-09-20 23:52:00,39.0,35.2,30.04,NW,308,0.0,1.0,86,0.00,,,0.00,meteohub,2013-09-21 06:52:00,
2013-09-20 23:57:00,38.8,35.6,30.04,NW,308,0.0,4.0,88,0.00,,,0.00,meteohub,2013-09-21 06:57:00,